N91VK KSBA-KSFO

Flight info

Callsign N91VK
Flight time 1h 18m
Altitude 8000
Route GVO MQO/N0216F070 PRB/N0215F080 SNS SJC
Aircraft AEST/L-SDFGRY/S

Departure

Time 2026-04-30 20:24
Airport Santa Barbara Municipal Airport (KSBA)

Arrival

Time 2026-04-30 21:42
Airport San Francisco International Airport (KSFO)
Time Latitude Longitude Altitude Speed Heading
2026-04-30 20:14 34.42945 -119.84441 13 ft 0 kts 333°
2026-04-30 20:19 34.42948 -119.84449 13 ft 2 kts 248°
2026-04-30 20:19 34.42922 -119.84410 13 ft 8 kts 94°
2026-04-30 20:20 34.42925 -119.84356 13 ft 7 kts 70°
2026-04-30 20:20 34.42905 -119.84311 13 ft 8 kts 140°
2026-04-30 20:20 34.42889 -119.84258 13 ft 8 kts 88°
2026-04-30 20:20 34.42891 -119.84148 13 ft 21 kts 90°
2026-04-30 20:21 34.42895 -119.83990 13 ft 17 kts 89°
2026-04-30 20:21 34.42898 -119.83840 13 ft 20 kts 89°
2026-04-30 20:21 34.42901 -119.83687 13 ft 17 kts 89°
2026-04-30 20:21 34.42897 -119.83545 13 ft 12 kts 118°
2026-04-30 20:22 34.42874 -119.83527 13 ft 0 kts 169°
2026-04-30 20:22 34.42863 -119.83528 13 ft 5 kts 188°
2026-04-30 20:23 34.42804 -119.83514 13 ft 12 kts 179°
2026-04-30 20:23 34.42791 -119.83557 13 ft 0 kts 268°
2026-04-30 20:23 34.42783 -119.83870 15 ft 77 kts 268°
2026-04-30 20:23 34.42766 -119.84687 86 ft 107 kts 269°
2026-04-30 20:24 34.42730 -119.85593 434 ft 108 kts 267°
2026-04-30 20:24 34.42769 -119.86489 907 ft 112 kts 288°
2026-04-30 20:24 34.43106 -119.87394 1261 ft 125 kts 302°
2026-04-30 20:24 34.43700 -119.88258 1582 ft 137 kts 315°
2026-04-30 20:25 34.44971 -119.90111 2404 ft 146 kts 303°
2026-04-30 20:25 34.45505 -119.91151 2826 ft 145 kts 298°
2026-04-30 20:26 34.46450 -119.93297 3632 ft 143 kts 298°
2026-04-30 20:26 34.47342 -119.95400 4314 ft 138 kts 298°
2026-04-30 20:26 34.47777 -119.96434 4620 ft 137 kts 299°
2026-04-30 20:27 34.48647 -119.98497 5252 ft 138 kts 300°
2026-04-30 20:27 34.49521 -120.00566 5839 ft 138 kts 300°
2026-04-30 20:28 34.50385 -120.02622 6429 ft 136 kts 301°
2026-04-30 20:28 34.51249 -120.04666 7065 ft 136 kts 301°
2026-04-30 20:29 34.52129 -120.06751 7602 ft 141 kts 301°
2026-04-30 20:30 34.53806 -120.09754 8090 ft 160 kts 326°
2026-04-30 20:30 34.56802 -120.12481 7946 ft 193 kts 327°
2026-04-30 20:31 34.60069 -120.15461 7916 ft 196 kts 326°
2026-04-30 20:32 34.63321 -120.18452 7915 ft 195 kts 326°
2026-04-30 20:32 34.65486 -120.20444 7926 ft 196 kts 326°
2026-04-30 20:33 34.66572 -120.21440 7925 ft 196 kts 326°
2026-04-30 20:33 34.68742 -120.23435 7928 ft 196 kts 326°
2026-04-30 20:33 34.69828 -120.24439 7934 ft 196 kts 326°
2026-04-30 20:34 34.71997 -120.26443 7944 ft 197 kts 326°
2026-04-30 20:34 34.74177 -120.28456 7943 ft 197 kts 326°
2026-04-30 20:35 34.75267 -120.29460 7939 ft 196 kts 326°
2026-04-30 20:35 34.76354 -120.30464 7947 ft 196 kts 326°
2026-04-30 20:35 34.78527 -120.32461 7962 ft 196 kts 326°
2026-04-30 20:36 34.79614 -120.33465 7950 ft 196 kts 326°
2026-04-30 20:36 34.80700 -120.34471 7948 ft 196 kts 325°
2026-04-30 20:36 34.82870 -120.36474 7952 ft 196 kts 325°
2026-04-30 20:37 34.83960 -120.37481 7950 ft 197 kts 325°
2026-04-30 20:37 34.85049 -120.38494 7953 ft 197 kts 325°
2026-04-30 20:37 34.86138 -120.39506 7950 ft 197 kts 325°
2026-04-30 20:37 34.87227 -120.40517 7951 ft 197 kts 325°
2026-04-30 20:38 34.88315 -120.41526 7951 ft 197 kts 325°
2026-04-30 20:38 34.89404 -120.42536 7952 ft 197 kts 325°
2026-04-30 20:38 34.90491 -120.43545 7951 ft 197 kts 325°
2026-04-30 20:39 34.92669 -120.45566 7951 ft 197 kts 325°
2026-04-30 20:39 34.93760 -120.46576 7960 ft 197 kts 325°
2026-04-30 20:39 34.94850 -120.47588 7949 ft 197 kts 325°
2026-04-30 20:40 34.97029 -120.49610 7951 ft 197 kts 325°
2026-04-30 20:40 34.98116 -120.50622 7949 ft 196 kts 325°
2026-04-30 20:40 34.99201 -120.51631 7952 ft 196 kts 325°
2026-04-30 20:41 35.01367 -120.53644 7952 ft 195 kts 325°
2026-04-30 20:41 35.02450 -120.54649 7952 ft 196 kts 325°
2026-04-30 20:41 35.03534 -120.55654 7951 ft 196 kts 325°
2026-04-30 20:41 35.04618 -120.56661 7952 ft 196 kts 324°
2026-04-30 20:42 35.05705 -120.57674 7953 ft 197 kts 324°
2026-04-30 20:42 35.06791 -120.58690 7953 ft 197 kts 324°
2026-04-30 20:42 35.08966 -120.60728 7939 ft 197 kts 324°
2026-04-30 20:43 35.10053 -120.61744 7943 ft 197 kts 324°
2026-04-30 20:43 35.11141 -120.62761 7947 ft 197 kts 324°
2026-04-30 20:43 35.12229 -120.63779 7945 ft 197 kts 324°
2026-04-30 20:44 35.14406 -120.65811 7940 ft 197 kts 324°
2026-04-30 20:44 35.15492 -120.66826 7944 ft 196 kts 324°
2026-04-30 20:44 35.17668 -120.68862 7942 ft 197 kts 324°
2026-04-30 20:45 35.19846 -120.70899 7941 ft 197 kts 324°
2026-04-30 20:45 35.20932 -120.71918 7942 ft 197 kts 324°
2026-04-30 20:45 35.22018 -120.72935 7942 ft 197 kts 324°
2026-04-30 20:46 35.25456 -120.75565 7945 ft 195 kts 354°
2026-04-30 20:46 35.26798 -120.75478 7947 ft 194 kts 11°
2026-04-30 20:47 35.29424 -120.74724 7943 ft 194 kts 15°
2026-04-30 20:47 35.30729 -120.74298 7942 ft 195 kts 15°
2026-04-30 20:48 35.33347 -120.73433 7939 ft 195 kts 15°
2026-04-30 20:48 35.34655 -120.73005 7944 ft 194 kts 15°
2026-04-30 20:48 35.35959 -120.72581 7948 ft 194 kts 15°
2026-04-30 20:48 35.37261 -120.72162 7954 ft 194 kts 15°
2026-04-30 20:49 35.38566 -120.71746 7953 ft 194 kts 15°
2026-04-30 20:49 35.39875 -120.71332 7952 ft 194 kts 15°
2026-04-30 20:49 35.41179 -120.70920 7952 ft 194 kts 15°
2026-04-30 20:50 35.43795 -120.70097 7950 ft 194 kts 15°
2026-04-30 20:50 35.45099 -120.69687 7959 ft 193 kts 15°
2026-04-30 20:50 35.46403 -120.69276 7960 ft 193 kts 15°
2026-04-30 20:50 35.47708 -120.68864 7960 ft 194 kts 15°
2026-04-30 20:51 35.49016 -120.68453 7963 ft 194 kts 15°
2026-04-30 20:51 35.51629 -120.67629 7970 ft 194 kts 15°
2026-04-30 20:51 35.52937 -120.67215 7969 ft 195 kts 15°
2026-04-30 20:52 35.54250 -120.66799 7971 ft 195 kts 15°
2026-04-30 20:52 35.55560 -120.66385 7965 ft 194 kts 15°
2026-04-30 20:52 35.58177 -120.65557 7983 ft 194 kts 15°
2026-04-30 20:53 35.59484 -120.65140 7980 ft 194 kts 15°
2026-04-30 20:53 35.60794 -120.64725 7979 ft 195 kts 15°
2026-04-30 20:53 35.62106 -120.64311 7978 ft 195 kts 15°
2026-04-30 20:54 35.64731 -120.63483 7981 ft 195 kts 15°
2026-04-30 20:54 35.66059 -120.63169 7974 ft 195 kts
2026-04-30 20:54 35.67399 -120.63351 7975 ft 195 kts 345°
2026-04-30 20:55 35.69711 -120.65081 7984 ft 197 kts 323°
2026-04-30 20:55 35.70796 -120.66115 7983 ft 198 kts 323°
2026-04-30 20:55 35.71878 -120.67159 7982 ft 198 kts 323°
2026-04-30 20:56 35.74034 -120.69263 7973 ft 197 kts 323°
2026-04-30 20:56 35.75111 -120.70312 7981 ft 197 kts 323°
2026-04-30 20:56 35.77266 -120.72411 7980 ft 198 kts 323°
2026-04-30 20:57 35.78345 -120.73463 7985 ft 198 kts 323°
2026-04-30 20:57 35.79422 -120.74512 7973 ft 198 kts 323°
2026-04-30 20:57 35.80505 -120.75564 7957 ft 198 kts 323°
2026-04-30 20:58 35.82665 -120.77663 7955 ft 198 kts 323°
2026-04-30 20:58 35.83743 -120.78714 7965 ft 198 kts 323°
2026-04-30 20:58 35.84823 -120.79764 7957 ft 198 kts 323°
2026-04-30 20:58 35.85902 -120.80817 7968 ft 198 kts 323°
2026-04-30 20:59 35.88063 -120.82924 7962 ft 198 kts 323°
2026-04-30 20:59 35.89143 -120.83975 7959 ft 198 kts 323°
2026-04-30 21:00 35.91300 -120.86077 7958 ft 198 kts 323°
2026-04-30 21:00 35.93463 -120.88190 7965 ft 198 kts 323°
2026-04-30 21:01 35.95625 -120.90299 7963 ft 198 kts 323°
2026-04-30 21:01 35.96707 -120.91357 7962 ft 199 kts 323°
2026-04-30 21:01 35.98877 -120.93485 7960 ft 199 kts 323°
2026-04-30 21:02 35.99962 -120.94547 7963 ft 200 kts 323°
2026-04-30 21:02 36.00685 -120.95254 7959 ft 200 kts 323°
2026-04-30 21:02 36.01781 -120.96322 7957 ft 201 kts 323°
2026-04-30 21:02 36.02881 -120.97393 7965 ft 201 kts 323°
2026-04-30 21:03 36.03981 -120.98469 7958 ft 202 kts 322°
2026-04-30 21:03 36.05080 -120.99551 7966 ft 202 kts 322°
2026-04-30 21:03 36.06177 -121.00629 7957 ft 202 kts 322°
2026-04-30 21:03 36.07273 -121.01705 7966 ft 201 kts 322°
2026-04-30 21:04 36.08366 -121.02780 7969 ft 201 kts 322°
2026-04-30 21:04 36.09458 -121.03856 7968 ft 201 kts 322°
2026-04-30 21:04 36.11626 -121.05985 7967 ft 198 kts 323°
2026-04-30 21:05 36.12700 -121.07037 7962 ft 196 kts 323°
2026-04-30 21:05 36.13767 -121.08085 7970 ft 195 kts 322°
2026-04-30 21:05 36.14828 -121.09129 7965 ft 194 kts 322°
2026-04-30 21:05 36.15883 -121.10168 7971 ft 194 kts 323°
2026-04-30 21:06 36.16938 -121.11203 7972 ft 194 kts 323°
2026-04-30 21:06 36.17991 -121.12237 7968 ft 194 kts 322°
2026-04-30 21:06 36.19045 -121.13275 7975 ft 193 kts 322°
2026-04-30 21:06 36.20099 -121.14312 7972 ft 193 kts 322°
2026-04-30 21:07 36.21153 -121.15349 7971 ft 194 kts 322°
2026-04-30 21:07 36.22205 -121.16388 7967 ft 194 kts 322°
2026-04-30 21:07 36.23258 -121.17427 7970 ft 193 kts 322°
2026-04-30 21:07 36.24311 -121.18464 7969 ft 193 kts 322°
2026-04-30 21:08 36.25361 -121.19502 7970 ft 193 kts 322°
2026-04-30 21:08 36.26408 -121.20539 7969 ft 193 kts 322°
2026-04-30 21:08 36.27460 -121.21582 7971 ft 193 kts 322°
2026-04-30 21:08 36.28510 -121.22622 7971 ft 193 kts 322°
2026-04-30 21:09 36.29558 -121.23658 7974 ft 193 kts 322°
2026-04-30 21:09 36.30609 -121.24696 7972 ft 193 kts 322°
2026-04-30 21:09 36.31660 -121.25735 7966 ft 193 kts 322°
2026-04-30 21:09 36.32711 -121.26776 7974 ft 193 kts 322°
2026-04-30 21:10 36.33762 -121.27817 7969 ft 193 kts 322°
2026-04-30 21:10 36.34812 -121.28854 7981 ft 193 kts 322°
2026-04-30 21:10 36.35860 -121.29891 7980 ft 193 kts 322°
2026-04-30 21:10 36.36909 -121.30930 7979 ft 193 kts 322°
2026-04-30 21:11 36.37959 -121.31973 7976 ft 193 kts 322°
2026-04-30 21:11 36.39007 -121.33012 7980 ft 193 kts 322°
2026-04-30 21:11 36.40057 -121.34054 7976 ft 193 kts 322°
2026-04-30 21:11 36.41105 -121.35096 7980 ft 193 kts 322°
2026-04-30 21:12 36.42152 -121.36136 7979 ft 193 kts 322°
2026-04-30 21:12 36.43200 -121.37176 7978 ft 193 kts 322°
2026-04-30 21:12 36.44248 -121.38218 7980 ft 193 kts 322°
2026-04-30 21:12 36.45296 -121.39263 7979 ft 193 kts 322°
2026-04-30 21:13 36.46347 -121.40304 7979 ft 193 kts 322°
2026-04-30 21:13 36.47402 -121.41340 7977 ft 193 kts 322°
2026-04-30 21:13 36.48456 -121.42380 7980 ft 194 kts 322°
2026-04-30 21:13 36.49508 -121.43425 7984 ft 194 kts 322°
2026-04-30 21:14 36.50557 -121.44474 7979 ft 194 kts 321°
2026-04-30 21:14 36.51604 -121.45521 7977 ft 194 kts 322°
2026-04-30 21:14 36.52654 -121.46569 7982 ft 194 kts 322°
2026-04-30 21:14 36.53704 -121.47618 7976 ft 194 kts 322°
2026-04-30 21:15 36.54754 -121.48666 7980 ft 194 kts 322°
2026-04-30 21:15 36.55805 -121.49714 7984 ft 194 kts 322°
2026-04-30 21:15 36.56851 -121.50761 7985 ft 193 kts 321°
2026-04-30 21:15 36.57895 -121.51808 7989 ft 193 kts 321°
2026-04-30 21:16 36.58939 -121.52858 7989 ft 193 kts 321°
2026-04-30 21:16 36.59986 -121.53905 7989 ft 193 kts 322°
2026-04-30 21:16 36.61035 -121.54951 7989 ft 193 kts 322°
2026-04-30 21:16 36.62087 -121.55996 7989 ft 194 kts 322°
2026-04-30 21:17 36.63139 -121.57043 7989 ft 194 kts 322°
2026-04-30 21:17 36.64189 -121.58093 7988 ft 194 kts 322°
2026-04-30 21:17 36.65239 -121.59144 7988 ft 194 kts 322°
2026-04-30 21:17 36.66320 -121.60135 7989 ft 194 kts 330°
2026-04-30 21:18 36.67528 -121.60863 8001 ft 193 kts 338°
2026-04-30 21:18 36.68773 -121.61490 7992 ft 193 kts 339°
2026-04-30 21:18 36.70031 -121.62087 7986 ft 193 kts 340°
2026-04-30 21:18 36.71290 -121.62676 7987 ft 193 kts 340°
2026-04-30 21:19 36.72550 -121.63261 7989 ft 193 kts 340°
2026-04-30 21:19 36.73808 -121.63849 7989 ft 193 kts 340°
2026-04-30 21:19 36.75065 -121.64442 7989 ft 193 kts 339°
2026-04-30 21:19 36.76318 -121.65036 7989 ft 193 kts 339°
2026-04-30 21:20 36.77574 -121.65631 7987 ft 193 kts 339°
2026-04-30 21:20 36.78830 -121.66227 7988 ft 193 kts 339°
2026-04-30 21:20 36.80086 -121.66824 7990 ft 193 kts 339°
2026-04-30 21:20 36.81342 -121.67424 7988 ft 193 kts 339°
2026-04-30 21:21 36.82596 -121.68024 7987 ft 193 kts 339°
2026-04-30 21:21 36.83850 -121.68623 7988 ft 193 kts 339°
2026-04-30 21:21 36.86357 -121.69819 7990 ft 193 kts 339°
2026-04-30 21:22 36.87607 -121.70418 7986 ft 192 kts 339°
2026-04-30 21:22 36.91350 -121.72214 7991 ft 192 kts 339°
2026-04-30 21:23 36.92600 -121.72811 7987 ft 192 kts 339°
2026-04-30 21:23 36.93849 -121.73410 7988 ft 192 kts 339°
2026-04-30 21:23 36.96343 -121.74602 7989 ft 192 kts 339°
2026-04-30 21:24 36.97591 -121.75201 7988 ft 192 kts 339°
2026-04-30 21:24 36.98839 -121.75801 7990 ft 192 kts 339°
2026-04-30 21:24 37.00088 -121.76400 7988 ft 192 kts 339°
2026-04-30 21:24 37.01336 -121.77000 7987 ft 192 kts 339°
2026-04-30 21:25 37.03832 -121.78199 7976 ft 192 kts 339°
2026-04-30 21:25 37.05078 -121.78798 7979 ft 192 kts 339°
2026-04-30 21:25 37.06320 -121.79396 7979 ft 192 kts 339°
2026-04-30 21:26 37.08815 -121.80593 7983 ft 192 kts 339°
2026-04-30 21:26 37.10062 -121.81194 7981 ft 192 kts 339°
2026-04-30 21:27 37.12563 -121.82397 7975 ft 193 kts 339°
2026-04-30 21:27 37.13810 -121.82997 7977 ft 192 kts 339°
2026-04-30 21:27 37.15060 -121.83600 7979 ft 192 kts 339°
2026-04-30 21:28 37.17552 -121.84804 7975 ft 192 kts 339°
2026-04-30 21:28 37.18800 -121.85405 7974 ft 192 kts 339°
2026-04-30 21:28 37.21295 -121.86608 7969 ft 192 kts 339°
2026-04-30 21:29 37.22544 -121.87212 7969 ft 192 kts 339°
2026-04-30 21:29 37.26298 -121.89029 7969 ft 192 kts 339°
2026-04-30 21:30 37.28790 -121.90239 7969 ft 192 kts 339°
2026-04-30 21:31 37.32524 -121.92056 7970 ft 192 kts 339°
2026-04-30 21:31 37.35016 -121.93261 7969 ft 192 kts 339°
2026-04-30 21:32 37.37500 -121.94467 7977 ft 191 kts 339°
2026-04-30 21:32 37.38741 -121.95065 7969 ft 191 kts 339°
2026-04-30 21:32 37.39982 -121.95653 7969 ft 191 kts 339°
2026-04-30 21:32 37.41228 -121.96235 7969 ft 191 kts 340°
2026-04-30 21:33 37.42477 -121.96809 7957 ft 192 kts 340°
2026-04-30 21:33 37.45008 -121.97922 7276 ft 189 kts 341°
2026-04-30 21:33 37.46245 -121.98437 6934 ft 185 kts 339°
2026-04-30 21:34 37.47294 -121.99325 6586 ft 182 kts 314°
2026-04-30 21:34 37.47997 -122.02266 5836 ft 182 kts 274°
2026-04-30 21:34 37.48039 -122.03874 5464 ft 181 kts 274°
2026-04-30 21:35 37.48374 -122.05374 5112 ft 178 kts 298°
2026-04-30 21:35 37.48986 -122.06719 4758 ft 176 kts 301°
2026-04-30 21:35 37.49613 -122.08037 4404 ft 175 kts 302°
2026-04-30 21:35 37.50196 -122.09369 4051 ft 173 kts 297°
2026-04-30 21:36 37.50725 -122.10729 3723 ft 172 kts 298°
2026-04-30 21:36 37.51303 -122.12040 3371 ft 170 kts 300°
2026-04-30 21:37 37.52915 -122.15949 2280 ft 165 kts 298°
2026-04-30 21:37 37.53415 -122.17193 2099 ft 151 kts 298°
2026-04-30 21:37 37.53891 -122.18361 2114 ft 149 kts 305°
2026-04-30 21:37 37.54466 -122.19417 2182 ft 144 kts 302°
2026-04-30 21:38 37.54953 -122.20514 2234 ft 143 kts 300°
2026-04-30 21:38 37.55423 -122.21609 2297 ft 141 kts 299°
2026-04-30 21:38 37.55887 -122.22703 2314 ft 142 kts 300°
2026-04-30 21:38 37.56343 -122.23782 2187 ft 131 kts 299°
2026-04-30 21:39 37.56750 -122.24747 1963 ft 120 kts 299°
2026-04-30 21:39 37.57136 -122.25652 1770 ft 118 kts 298°
2026-04-30 21:39 37.57536 -122.26597 1663 ft 124 kts 298°
2026-04-30 21:39 37.57931 -122.27538 1526 ft 121 kts 298°
2026-04-30 21:40 37.58325 -122.28479 1318 ft 121 kts 298°
2026-04-30 21:40 37.58717 -122.29414 1136 ft 120 kts 298°
2026-04-30 21:40 37.59089 -122.30300 989 ft 106 kts 298°
2026-04-30 21:40 37.59412 -122.31074 862 ft 96 kts 297°
2026-04-30 21:41 37.59721 -122.31812 730 ft 95 kts 297°
2026-04-30 21:41 37.60027 -122.32542 620 ft 94 kts 297°
2026-04-30 21:41 37.60230 -122.33027 529 ft 95 kts 298°
2026-04-30 21:41 37.60530 -122.33778 386 ft 97 kts 295°
2026-04-30 21:42 37.60843 -122.34529 263 ft 96 kts 301°
2026-04-30 21:42 37.61168 -122.35268 161 ft 96 kts 296°
2026-04-30 21:42 37.61475 -122.36013 25 ft 84 kts 299°
2026-04-30 21:42 37.61679 -122.36496 17 ft 48 kts 298°
2026-04-30 21:43 37.61808 -122.36799 17 ft 34 kts 297°
2026-04-30 21:43 37.61905 -122.37020 17 ft 21 kts 320°
2026-04-30 21:43 37.62020 -122.36996 17 ft 15 kts 359°
2026-04-30 21:43 37.62080 -122.37078 17 ft 12 kts 298°
2026-04-30 21:44 37.62125 -122.37187 17 ft 18 kts 297°
2026-04-30 21:44 37.62181 -122.37320 17 ft 16 kts 298°
2026-04-30 21:44 37.62228 -122.37430 17 ft 13 kts 297°
2026-04-30 21:44 37.62283 -122.37560 17 ft 20 kts 299°
2026-04-30 21:45 37.62356 -122.37735 17 ft 22 kts 298°
2026-04-30 21:45 37.62450 -122.37956 17 ft 27 kts 298°
2026-04-30 21:45 37.62525 -122.38137 17 ft 15 kts 303°
2026-04-30 21:45 37.62596 -122.38309 17 ft 28 kts 297°
2026-04-30 21:46 37.62687 -122.38454 17 ft 16 kts
2026-04-30 21:46 37.62779 -122.38416 17 ft 13 kts 21°
2026-04-30 21:46 37.62792 -122.38430 17 ft 0 kts 205°